FENGYUN 1C DEB *, 47041

Orbit data source: Space-Track

FENGYUN 1C DEB *, 47041 is space debris in SSO originally from a launch on Mon, 10 May 1999 UTC launched from the Taiyaun Space Center, China (TSC). Fengyun 1C debris stems from the Chinese weather satellite Fengyun-1C, which was intentionally destroyed by a Chinese anti-satellite missile in 2007. This event dramatically increased the amount of space debris, with thousands of trackable fragments posing hazards to satellites and human spaceflight. The Fengyun 1C debris cloud has become a focal point in discussions about space sustainability and the need for international regulations to prevent the creation of new debris.

Loading next visibility...
Identifier
47041, 1999-025FBT
Orbit
SSO
Country
Flag of CNCN / PRC
Related business
Manufacturer
Unknown
Mission
Spacecraft
Bus & Motor
Unknown
Mass
Unknown
Launch date (UTC)
1999-05-10 (27 years ago)
Launch vehicle
Unknown
Launch site
Taiyaun Space Center, China (TSC)
Object type
Payload
Rocket body
Debris
Shape & HBR
Unknown shape, 0.1 m
Radar Cross Section
Small (<0.1 m²)

Expand to show TLE details & history
Last TLE update: 1 week ago

TLE from 1 week ago
0 FENGYUN 1C DEB *
1 47041U 99025FBT 26228.40235186  .00043800  00000-0  15447-2 0  9998
2 47041  98.2282 281.5295 0010059  86.7901 285.7764 15.29080345749306
Epoch: 2026-08-16T09:39Z
TLE epoch observation values (Epoch: 2026-08-16T09:39:23.200Z)
Latitude
12.28238°
Longitude
170.08932°
Altitude
479.004 km
Speed
7.628 km/s
True Right ascension
18h 38m 56s
True Declination
12° 12' 30"
Sunlit
Object was in full shadow at epoch
Visualization orbit readout
Latitude
Unknown
Longitude
Unknown
Altitude
Unknown
Speed
Unknown
Apparent Right ascension
Unknown
Apparent Declination
Unknown
Sunlit
N/A
Visualization observer readout
Local Sidereal Time
04:58:24
Azimuth
Unknown
Elevation
Unknown
Doppler factor
Unknown
Orbital elements
Apogee altitude
482.445 km
Perigee altitude
468.657 km
Semi-major axis
6,853.688 km
Eccentricity
0.00101
Inclination
98.2282°
RAAN
281.5295°
Arg. of periapsis
86.7901°
True anomaly
285.66544°
Mean anomaly
285.7764°
Eccentric anomaly
285.72092°
Mean motion
3.82522 °/min
Orbital period
94.11 mins
BSTAR
0.0015447
Loading maneuver chart data...
Computing Atmospheric mass density...

Documentation

Showing up to 5 results
|